sat.trackr.live / text

‹ back to catalog

STARLINK-1805

NORAD 46705 · 2020-073AM

PAYLOAD ACTIVE UNKNOWN

§ Identity

Operator
Country
US
Launch date
2020-10-18
Launch site
AFETR
Launch vehicle
Mass (kg)
RCS (m²)

Purposes: comms

External: N2YO · Heavens-Above · Gunter

§ Orbital elements

Epoch: 2026-05-24T15:23:08.961216Z

Period
91.95 min
Inclination
53.0445°
Eccentricity
0.0002386
Mean motion
15.66134546 rev/d
Perigee alt
368.4 km
Apogee alt
371.6 km
Semi-major
6,748.1 km
B*
5.5948e-4
RAAN
233.8717°
Arg perigee
333.7246°
Mean anomaly
26.3648°
Rev number
30,895

§ Raw data

STARLINK-18051 46705U 20073AM  26144.64107594  .00058438  00000+0  55948-3 0  99982 46705  53.0445 233.8717 0002386 333.7246  26.3648 15.66134546308958

JSON: /api/v1/satellites/46705 · /tle

For live sub-satellite position, see the globe view (requires WebGL).

§ Visibility from observer

Set your observer location to see the next 7 days of passes ≥ 10°. The values pass through the URL so the page stays shareable.

No JS? Fill the form by hand. The geolocation button needs JavaScript.